Location: Coffee Creek Observatory
(38.8077°N, 94.7179°W)
Time: 08:50:35
(UTC-05:00)

Amateur Radio Satellites - All Passes

Search period start: 30 September 2014 08:20
Search period end: 01 October 2014 08:20
Location: Coffee Creek Observatory, 38.8077°N, 94.7179°W

Satellite Date Start Highest point End Downlink Frequencies (MHz)
Time Altitude Azimuth
AO-7 30 Sep 08:41:09 08:42:10 10° 316° (NW) 08:43:11 29.400 - 29.500 MHz
SO-67 30 Sep 08:42:54 08:46:17 53° 284° (WNW) 08:49:38 435.3500 MHz FM
PCSat 30 Sep 08:56:25 08:59:22 15° 104° (ESE) 09:02:21 145.825 MHz
RS-15 30 Sep 09:36:16 09:44:32 23° 26° (NNE) 09:52:57 29.354 - 29.394 USB, Beacon 29.352 USB
UKube-1 30 Sep 10:06:27 10:09:48 21° 95° (E) 10:13:08 145.840 MHz, 145.915 MHz
HO-68 30 Sep 10:09:51 10:16:57 60° 102° (ESE) 10:24:01 435.675 MHz FM
Sapphire 30 Sep 10:11:05 10:16:26 68° 115° (ESE) 10:21:49 437.095 MHz 1200 baud AX-25 AFSK
PCSat 30 Sep 10:36:47 10:42:09 68° 300° (WNW) 10:47:34 145.825 MHz
ZACube-1 30 Sep 10:44:43 10:48:00 19° 93° (E) 10:51:12 437.345 MHz
Oscar 11 30 Sep 11:13:09 11:17:30 82° 284° (WNW) 11:21:48 145.825 FM, Beacon 2401.500 USB
FUNcube-1 30 Sep 11:34:59 11:39:33 70° 101° (ESE) 11:43:59 145.950 - 145.970 MHz USB
UKube-1 30 Sep 11:42:09 11:46:00 31° 290° (WNW) 11:49:52 145.840 MHz, 145.915 MHz
RS-15 30 Sep 11:48:29 11:59:35 66° 54° (NE) 12:11:06 29.354 - 29.394 USB, Beacon 29.352 USB
Sapphire 30 Sep 11:56:36 12:00:22 19° 313° (NW) 12:04:09 437.095 MHz 1200 baud AX-25 AFSK
HO-68 30 Sep 11:58:26 12:04:08 26° 300° (WNW) 12:09:51 435.675 MHz FM
ZACube-1 30 Sep 12:20:19 12:24:30 37° 289° (WNW) 12:28:36 437.345 MHz
PCSat 30 Sep 12:24:45 12:26:36 12° 320° (NW) 12:28:28 145.825 MHz
JAS-1B 30 Sep 12:58:50 13:03:43 19° 63° (ENE) 13:08:08 435.800 - 435.900 CW/SSB
Oscar 19 30 Sep 13:07:39 13:11:49 25° 66° (ENE) 13:16:00 437.125 CW, 437.150 USB
FUNcube-1 30 Sep 13:13:51 13:15:17 11° 298° (WNW) 13:16:42 145.950 - 145.970 MHz USB
ITAMSAT 1 30 Sep 13:19:37 13:22:08 14° 61° (ENE) 13:24:40 435.822 SSB
Uribyol 2 30 Sep 13:20:19 13:23:10 15° 62° (ENE) 13:26:02 436.500 FM
Oscar 16 30 Sep 13:47:26 13:52:33 62° 73° (ENE) 13:57:41 437.025 USB, Beacon 2401.1428
AO-27 30 Sep 13:55:33 14:00:01 30° 68° (ENE) 14:04:31 436.795 MHz FM
RS-15 30 Sep 14:01:39 14:11:14 35° 254° (WSW) 14:21:12 29.354 - 29.394 USB, Beacon 29.352 USB
AO-Echo 30 Sep 14:03:47 14:08:07 39° 71° (ENE) 14:12:29 ?
Gurwin Techsat 1B 30 Sep 14:16:36 14:20:43 24° 66° (ENE) 14:24:51 435.225 FM
Saudisat 1A 30 Sep 14:22:12 14:26:20 42° 116° (ESE) 14:30:30 436.775 MHz
TMSAT-1 30 Sep 14:45:09 14:49:45 31° 68° (ENE) 14:54:22 436.925 FM
JAS-1B 30 Sep 14:46:01 14:53:55 74° 257° (WSW) 15:00:30 435.800 - 435.900 CW/SSB
Oscar 19 30 Sep 14:46:08 14:50:56 38° 262° (W) 14:55:46 437.125 CW, 437.150 USB
ITAMSAT 1 30 Sep 14:55:49 15:00:58 74° 257° (WSW) 15:06:11 435.822 SSB
Uribyol 2 30 Sep 14:56:54 15:02:02 67° 258° (WSW) 15:07:14 436.500 FM
MaSat-1 30 Sep 14:57:51 14:59:21 12° 50° (NE) 15:00:45 437.345 MHz
Uosat F 30 Sep 15:27:14 15:29:16 12° 61° (ENE) 15:31:17 435.120 FM
Oscar 16 30 Sep 15:29:26 15:32:17 15° 269° (W) 15:35:09 437.025 USB, Beacon 2401.1428
AO-27 30 Sep 15:34:56 15:39:27 30° 263° (W) 15:44:01 436.795 MHz FM
AO-Echo 30 Sep 15:43:41 15:47:02 19° 266° (W) 15:50:24 ?
AO-7 30 Sep 15:48:35 15:56:14 43° 63° (ENE) 16:03:52 29.400 - 29.500 MHz
Gurwin Techsat 1B 30 Sep 15:55:24 16:00:24 42° 262° (W) 16:05:26 435.225 FM
Saudisat 1A 30 Sep 16:02:43 16:06:05 21° 313° (NW) 16:09:29 436.775 MHz
TMSAT-1 30 Sep 16:24:58 16:29:35 31° 264° (W) 16:34:15 436.925 FM
MaSat-1 30 Sep 16:33:08 16:36:01 29° 253° (WSW) 16:38:34 437.345 MHz
KITSAT 1 30 Sep 16:44:35 16:51:29 32° 107° (ESE) 16:58:23 435.175 FM
Uosat F 30 Sep 17:02:23 17:07:22 77° 257° (WSW) 17:12:24 435.120 FM
OPAL 30 Sep 17:11:06 17:14:08 16° 94° (E) 17:17:09 ?
Oscar 10/S400 30 Sep 17:25:44 17:43:46 55° 160° (SSE) 18:28:41 145.825 - 145.975 CW/USB, Beacon 145.810 USB
AO-7 30 Sep 17:41:15 17:48:57 42° 260° (W) 17:56:41 29.400 - 29.500 MHz
PCSat 30 Sep 17:44:48 17:47:02 12° 41° (NE) 17:49:15 145.825 MHz
JAS-2 30 Sep 18:02:02 18:07:06 61° 73° (ENE) 18:12:25 435.800 - 435.900 CW/SSB, 435.910 FM
Hamsat 30 Sep 18:14:51 18:19:09 66° 76° (ENE) 18:23:26 145.90 MHz
KITSAT 1 30 Sep 18:38:34 18:46:27 56° 305° (NW) 18:54:24 435.175 FM
OPAL 30 Sep 18:48:22 18:53:22 56° 290° (WNW) 18:58:15 ?
Sapphire 30 Sep 19:00:29 19:05:37 41° 56° (NE) 19:10:43 437.095 MHz 1200 baud AX-25 AFSK
SO-50 30 Sep 19:11:36 19:15:18 26° 112° (ESE) 19:19:05 436.795 FM
SO-67 30 Sep 19:14:23 19:17:33 35° 74° (ENE) 19:20:43 435.3500 MHz FM
PCSat 30 Sep 19:25:59 19:31:25 73° 61° (ENE) 19:36:49 145.825 MHz
STRAND 1 30 Sep 19:48:58 19:53:57 48° 100° (E) 19:58:54 ?
JAS-2 30 Sep 19:50:18 19:52:48 14° 270° (W) 19:55:20 435.800 - 435.900 CW/SSB, 435.910 FM
HO-68 30 Sep 20:37:10 20:43:39 40° 65° (ENE) 20:50:10 435.675 MHz FM
PANSAT 30 Sep 20:37:38 20:39:35 14° 168° (SSE) 20:41:32 not established
KITSAT 1 30 Sep 20:39:23 20:43:52 16° 329° (NNW) 20:48:23 435.175 FM
Sapphire 30 Sep 20:44:22 20:48:48 26° 253° (WSW) 20:53:13 437.095 MHz 1200 baud AX-25 AFSK
SO-67 30 Sep 20:49:38 20:50:42 11° 268° (W) 20:51:46 435.3500 MHz FM
SO-50 30 Sep 20:51:40 20:55:43 32° 309° (NW) 20:59:52 436.795 FM
UKube-1 30 Sep 21:01:29 21:04:15 17° 65° (ENE) 21:07:02 145.840 MHz, 145.915 MHz
PCSat 30 Sep 21:11:29 21:14:09 14° 257° (WSW) 21:16:47 145.825 MHz
UOSAT-12 30 Sep 21:21:03 21:25:27 47° 116° (ESE) 21:29:58 437.025 FM, 437.400 FM
STRAND 1 30 Sep 21:29:05 21:32:46 20° 296° (WNW) 21:36:27 ?
ZACube-1 30 Sep 21:40:48 21:43:20 15° 64° (ENE) 21:45:54 437.345 MHz
ISS 30 Sep 22:03:14 22:06:06 27° 133° (SE) 22:08:58 145.800 FM
Oscar 11 30 Sep 22:06:36 22:10:55 66° 75° (ENE) 22:15:15 145.825 FM, Beacon 2401.500 USB
PANSAT 30 Sep 22:16:28 22:19:06 18° 181° (S) 22:21:43 not established
HO-68 30 Sep 22:24:46 22:31:18 38° 262° (W) 22:37:53 435.675 MHz FM
FUNcube-1 30 Sep 22:29:46 22:34:06 48° 73° (ENE) 22:38:32 145.950 - 145.970 MHz USB
UKube-1 30 Sep 22:36:01 22:40:06 41° 261° (W) 22:44:14 145.840 MHz, 145.915 MHz
Saudisat 1A 30 Sep 22:50:14 22:53:57 26° 49° (NE) 22:57:38 436.775 MHz
UOSAT-12 30 Sep 23:02:15 23:05:51 22° 314° (NW) 23:09:30 437.025 FM, 437.400 FM
AO-40 30 Sep 23:02:18 00:51:51 27° 219° (SW) 04:34:59 Beacon 2401.320
ZACube-1 30 Sep 23:14:49 23:19:14 54° 260° (W) 23:23:46 437.345 MHz
ISS 30 Sep 23:39:42 23:42:43 32° 329° (NNW) 23:45:46 145.800 FM
PANSAT 30 Sep 23:57:00 23:58:35 12° 194° (SSW) 00:00:11 not established
FUNcube-1 01 Oct 00:08:05 00:10:44 15° 269° (W) 00:13:26 145.950 - 145.970 MHz USB
Saudisat 1A 01 Oct 00:29:34 00:33:33 33° 246° (WSW) 00:37:29 436.775 MHz
KITSAT 1 01 Oct 00:38:55 00:43:41 16° 32° (NNE) 00:48:26 435.175 FM
ISS 01 Oct 01:19:19 01:20:14 11° 349° (NNW) 01:21:10 145.800 FM
Oscar 16 01 Oct 02:01:12 02:05:19 24° 95° (E) 02:09:24 437.025 USB, Beacon 2401.1428
RS-15 01 Oct 02:10:44 02:21:02 46° 110° (ESE) 02:31:09 29.354 - 29.394 USB, Beacon 29.352 USB
AO-27 01 Oct 02:11:58 02:13:36 11° 90° (E) 02:15:14 436.795 MHz FM
AO-Echo 01 Oct 02:13:03 02:15:53 15° 92° (E) 02:18:45 ?
JAS-1B 01 Oct 02:32:23 02:37:16 28° 97° (E) 02:42:30 435.800 - 435.900 CW/SSB
KITSAT 1 01 Oct 02:32:59 02:40:58 60° 56° (NE) 02:48:54 435.175 FM
ISS 01 Oct 02:57:39 02:58:12 10° 10° (N) 02:58:45 145.800 FM
Oscar 19 01 Oct 02:58:36 03:03:46 85° 104° (ESE) 03:08:53 437.125 CW, 437.150 USB
TMSAT-1 01 Oct 03:03:44 03:06:12 13° 90° (E) 03:08:39 436.925 FM
ITAMSAT 1 01 Oct 03:10:08 03:15:08 44° 99° (E) 03:20:06 435.822 SSB
Uribyol 2 01 Oct 03:11:01 03:16:05 48° 100° (E) 03:21:06 436.500 FM
Oscar 16 01 Oct 03:40:01 03:44:45 38° 290° (WNW) 03:49:27 437.025 USB, Beacon 2401.1428
SO-50 01 Oct 03:44:01 03:47:43 21° 46° (NE) 03:51:26 436.795 FM
AO-27 01 Oct 03:48:25 03:53:39 78° 285° (WNW) 03:58:52 436.795 MHz FM
AO-Echo 01 Oct 03:50:01 03:54:58 60° 286° (WNW) 04:00:03 ?
AO-7 01 Oct 03:54:44 03:57:38 12° 88° (E) 04:00:32 29.400 - 29.500 MHz
Gurwin Techsat 1B 01 Oct 04:12:32 04:17:53 86° 104° (ESE) 04:23:12 435.225 FM
RS-15 01 Oct 04:22:38 04:33:13 51° 311° (NW) 04:43:48 29.354 - 29.394 USB, Beacon 29.352 USB
JAS-1B 01 Oct 04:22:53 04:28:00 36° 291° (WNW) 04:33:30 435.800 - 435.900 CW/SSB
OPAL 01 Oct 04:24:05 04:28:24 27° 65° (ENE) 04:32:44 ?
KITSAT 1 01 Oct 04:29:11 04:35:50 30° 254° (WSW) 04:42:30 435.175 FM
ISS 01 Oct 04:32:51 04:35:47 28° 29° (NNE) 04:38:41 145.800 FM
Oscar 19 01 Oct 04:40:39 04:42:21 12° 300° (WNW) 04:44:02 437.125 CW, 437.150 USB
TMSAT-1 01 Oct 04:41:18 04:46:36 70° 286° (WNW) 04:51:51 436.925 FM
ITAMSAT 1 01 Oct 04:50:21 04:54:18 22° 295° (WNW) 04:58:14 435.822 SSB
Uribyol 2 01 Oct 04:51:24 04:55:10 21° 296° (WNW) 04:58:55 436.500 FM
Uosat F 01 Oct 05:11:37 05:16:15 36° 98° (E) 05:20:52 435.120 FM
SO-50 01 Oct 05:23:52 05:28:34 52° 243° (WSW) 05:33:17 436.795 FM
AO-7 01 Oct 05:43:20 05:51:39 74° 106° (ESE) 05:59:56 29.400 - 29.500 MHz
UOSAT-12 01 Oct 05:52:00 05:56:12 30° 50° (NE) 06:00:19 437.025 FM, 437.400 FM
Gurwin Techsat 1B 01 Oct 05:55:06 05:57:04 12° 300° (WNW) 05:59:02 435.225 FM
OPAL 01 Oct 06:02:19 06:07:05 36° 260° (W) 06:11:54 ?
Hamsat 01 Oct 06:03:52 06:05:39 12° 91° (E) 06:07:26 145.90 MHz
ISS 01 Oct 06:09:27 06:12:29 33° 226° (SW) 06:15:30 145.800 FM
MaSat-1 01 Oct 06:13:35 06:18:28 87° 294° (WNW) 06:23:10 437.345 MHz
RS-15 01 Oct 06:41:50 06:49:07 19° 342° (NNW) 06:56:28 29.354 - 29.394 USB, Beacon 29.352 USB
Uosat F 01 Oct 06:50:46 06:54:50 25° 294° (WNW) 06:58:54 435.120 FM
JAS-2 01 Oct 06:55:02 07:01:47 68° 102° (ESE) 07:09:15 435.800 - 435.900 CW/SSB, 435.910 FM
STRAND 1 01 Oct 07:03:37 07:08:37 61° 73° (ENE) 07:13:39 ?
UOSAT-12 01 Oct 07:32:11 07:36:18 30° 247° (WSW) 07:40:20 437.025 FM, 437.400 FM
AO-7 01 Oct 07:37:20 07:43:39 25° 304° (NW) 07:49:58 29.400 - 29.500 MHz
Hamsat 01 Oct 07:37:50 07:41:53 48° 286° (WNW) 07:45:54 145.90 MHz
MaSat-1 01 Oct 07:53:53 07:55:31 12° 310° (NW) 07:57:07 437.345 MHz
SO-67 01 Oct 08:11:42 08:15:05 51° 100° (E) 08:18:26 435.3500 MHz FM
